NILESAT 201

Last updated on Sun Jun 21 2026 00:03:04 GMT+0000 (Coordinated Universal Time)

1 36830U 10037A 26171.39059714 -.00000062 00000+0 00000+0 0 9993 2 36830 0.0166 175.4166 0004660 301.0564 285.7642 1.00270209 58402
UTC large
Height (km)
Speed (km/s)
/
Latitude / Longitude
Inclination (degrees)
Orbital Period (minutes)
Azimuth
Elevation
Range (km)
Doppler Factor

Next 0 passes for location: London (51.5072 / 0.1276)

No passes found over London.
NILESAT 201